| time (UTC) | temp F | wind direction | speed MPH | gust MPH | rain 1hr in | rain 24hr in | rain mn in | humidity % | barometer mb |
| 20260902023224 | 62 | 57 | 0.0 | 1.0 | 0.00 | 0.00 | 0.00 | 94 | 1018.6 |
| 20260902022224 | 62 | 57 | 1.0 | 3.0 | 0.00 | 0.00 | 0.00 | 94 | 1018.5 |
| 20260902021202 | 62 | 57 | 0.0 | 3.0 | 0.00 | 0.00 | 0.00 | 94 | 1018.6 |
| 20260902020203 | 62 | 57 | 1.0 | 3.0 | 0.00 | 0.00 | 0.00 | 94 | 1018.7 |
| 20260902015203 | 62 | 57 | 0.0 | 2.0 | 0.00 | 0.00 | 0.00 | 94 | 1018.6 |
| 20260902014202 | 62 | 57 | 1.0 | 2.0 | 0.00 | 0.00 | 0.00 | 94 | 1018.6 |
| 20260902013203 | 61 | 57 | 1.0 | 2.0 | 0.00 | 0.00 | 0.00 | 94 | 1018.4 |
| 20260902012202 | 62 | 57 | 1.0 | 4.0 | 0.00 | 0.00 | 0.00 | 94 | 1018.6 |
| 20260902011203 | 61 | 57 | 0.0 | 3.0 | 0.00 | 0.00 | 0.00 | 94 | 1018.6 |
| 20260902010203 | 61 | 57 | 1.0 | 2.0 | 0.00 | 0.00 | 0.00 | 94 | 1018.5 |
| 20260902005204 | 61 | 57 | 0.0 | 4.0 | 0.00 | 0.00 | 0.00 | 93 | 1018.4 |
| 20260902004204 | 61 | 57 | 1.0 | 3.0 | 0.00 | 0.00 | 0.00 | 94 | 1018.3 |
| 20260902003244 | 61 | 57 | 1.0 | 2.0 | 0.00 | 0.00 | 0.00 | 93 | 1018.2 |
| 20260902002203 | 62 | 57 | 1.0 | 3.0 | 0.00 | 0.00 | 0.00 | 93 | 1018.2 |
| 20260902001203 | 61 | 57 | 0.0 | 2.0 | 0.00 | 0.00 | 0.00 | 93 | 1018.1 |
| 20260902000204 | 61 | 57 | 0.0 | 1.0 | 0.00 | 0.00 | 0.00 | 92 | 1018.2 |
| 20260901235203 | 61 | 57 | 0.0 | 0.0 | 0.00 | 0.00 | 0.00 | 92 | 1018.1 |
| 20260901234203 | 62 | 57 | 0.0 | 2.0 | 0.00 | 0.00 | 0.00 | 92 | 1018.1 |
| 20260901233203 | 62 | 57 | 0.0 | 2.0 | 0.00 | 0.00 | 0.00 | 92 | 1018.0 |
| 20260901232203 | 62 | 58 | 0.0 | 3.0 | 0.00 | 0.00 | 0.00 | 91 | 1018.1 |
| 20260901231202 | 63 | 57 | 0.0 | 3.0 | 0.00 | 0.00 | 0.00 | 91 | 1017.9 |
| 20260901230203 | 63 | 57 | 0.0 | 4.0 | 0.00 | 0.00 | 0.00 | 91 | 1017.9 |
| 20260901225203 | 63 | 57 | 0.0 | 2.0 | 0.00 | 0.00 | 0.00 | 90 | 1017.8 |
| 20260901224202 | 63 | 57 | 0.0 | 3.0 | 0.00 | 0.00 | 0.00 | 89 | 1017.8 |
| 20260901223203 | 64 | 57 | 0.0 | 3.0 | 0.00 | 0.00 | 0.00 | 88 | 1017.7 |
| 20260901222202 | 64 | 57 | 1.0 | 3.0 | 0.00 | 0.00 | 0.00 | 87 | 1017.8 |
| 20260901221203 | 65 | 57 | 1.0 | 3.0 | 0.00 | 0.00 | 0.00 | 86 | 1017.7 |
| 20260901220203 | 65 | 57 | 0.0 | 2.0 | 0.00 | 0.00 | 0.00 | 85 | 1017.6 |
| 20260901215202 | 66 | 57 | 1.0 | 3.0 | 0.00 | 0.00 | 0.00 | 84 | 1017.5 |
| 20260901214203 | 66 | 57 | 1.0 | 5.0 | 0.00 | 0.00 | 0.00 | 83 | 1017.5 |
| 20260901213203 | 66 | 50 | 1.0 | 5.0 | 0.00 | 0.00 | 0.00 | 83 | 1017.5 |
| 20260901212202 | 67 | 49 | 1.0 | 5.0 | 0.00 | 0.00 | 0.00 | 82 | 1017.5 |
| 20260901211224 | 68 | 11 | 1.0 | 4.0 | 0.00 | 0.00 | 0.00 | 81 | 1017.6 |
| 20260901210203 | 69 | 56 | 0.0 | 4.0 | 0.00 | 0.00 | 0.00 | 79 | 1017.3 |
| 20260901205203 | 69 | 56 | 1.0 | 5.0 | 0.00 | 0.00 | 0.00 | 80 | 1017.3 |
| 20260901204203 | 68 | 40 | 1.0 | 5.0 | 0.00 | 0.00 | 0.00 | 80 | 1017.1 |
| 20260901203203 | 69 | 66 | 1.0 | 4.0 | 0.00 | 0.00 | 0.00 | 80 | 1017.1 |
| 20260901202203 | 69 | 53 | 1.0 | 10.0 | 0.00 | 0.00 | 0.00 | 79 | 1017.1 |
| 20260901201202 | 69 | 53 | 2.0 | 7.0 | 0.00 | 0.00 | 0.00 | 78 | 1017.1 |
| 20260901200203 | 68 | 69 | 1.0 | 7.0 | 0.00 | 0.00 | 0.00 | 80 | 1017.2 |
| 20260901195203 | 69 | 54 | 1.0 | 7.0 | 0.00 | 0.00 | 0.00 | 77 | 1017.3 |
| 20260901194203 | 69 | 77 | 1.0 | 8.0 | 0.00 | 0.00 | 0.00 | 78 | 1017.2 |
| 20260901193203 | 69 | 70 | 2.0 | 9.0 | 0.00 | 0.00 | 0.00 | 77 | 1017.4 |
| 20260901192202 | 71 | 80 | 1.0 | 4.0 | 0.00 | 0.00 | 0.00 | 76 | 1017.4 |
| 20260901191203 | 69 | 73 | 2.0 | 7.0 | 0.00 | 0.00 | 0.00 | 77 | 1017.2 |
| 20260901190203 | 71 | 93 | 1.0 | 4.0 | 0.00 | 0.00 | 0.00 | 73 | 1017.2 |
| 20260901185202 | 71 | 74 | 2.0 | 5.0 | 0.00 | 0.00 | 0.00 | 75 | 1017.3 |
| 20260901184203 | 70 | 94 | 1.0 | 8.0 | 0.00 | 0.00 | 0.00 | 74 | 1017.2 |
| 20260901183223 | 70 | 79 | 1.0 | 7.0 | 0.00 | 0.00 | 0.00 | 75 | 1017.2 |
| 20260901182203 | 69 | 27 | 2.0 | 6.0 | 0.00 | 0.00 | 0.00 | 75 | 1017.2 |
| 20260901181203 | 69 | 46 | 1.0 | 6.0 | 0.00 | 0.00 | 0.00 | 76 | 1017.2 |
| 20260901180202 | 66 | 67 | 1.0 | 8.0 | 0.00 | 0.00 | 0.00 | 77 | 1017.3 |
| 20260901175202 | 66 | 61 | 3.0 | 9.0 | 0.00 | 0.00 | 0.00 | 75 | 1017.0 |
| 20260901174203 | 68 | 61 | 2.0 | 7.0 | 0.00 | 0.00 | 0.00 | 75 | 1017.1 |
| 20260901173203 | 68 | 71 | 1.0 | 4.0 | 0.00 | 0.00 | 0.00 | 78 | 1017.1 |
| 20260901172202 | 69 | 85 | 2.0 | 9.0 | 0.00 | 0.00 | 0.00 | 78 | 1017.1 |
| 20260901171224 | 68 | 60 | 4.0 | 9.0 | 0.00 | 0.00 | 0.00 | 75 | 1017.0 |
| 20260901170202 | 69 | 62 | 2.0 | 4.0 | 0.00 | 0.00 | 0.00 | 75 | 1017.1 |
| 20260901165203 | 69 | 58 | 1.0 | 7.0 | 0.00 | 0.00 | 0.00 | 74 | 1017.1 |
| 20260901164223 | 69 | 92 | 3.0 | 6.0 | 0.00 | 0.00 | 0.00 | 74 | 1017.1 |
| 20260901163203 | 70 | 64 | 1.0 | 7.0 | 0.00 | 0.00 | 0.00 | 75 | 1017.1 |
| 20260901162202 | 69 | 69 | 1.0 | 6.0 | 0.00 | 0.00 | 0.00 | 76 | 1016.9 |
| 20260901161203 | 69 | 113 | 1.0 | 8.0 | 0.00 | 0.00 | 0.00 | 75 | 1016.9 |
| 20260901160202 | 69 | 80 | 1.0 | 11.0 | 0.00 | 0.00 | 0.00 | 77 | 1016.9 |
| 20260901155203 | 69 | 78 | 1.0 | 9.0 | 0.00 | 0.00 | 0.00 | 79 | 1016.9 |
| 20260901154224 | 69 | 88 | 2.0 | 6.0 | 0.00 | 0.00 | 0.00 | 76 | 1016.9 |
| 20260901153202 | 68 | 83 | 1.0 | 4.0 | 0.00 | 0.00 | 0.00 | 77 | 1017.0 |
| 20260901152203 | 67 | 81 | 2.0 | 7.0 | 0.00 | 0.00 | 0.00 | 81 | 1017.1 |
| 20260901151203 | 64 | 75 | 2.0 | 9.0 | 0.00 | 0.00 | 0.00 | 82 | 1017.2 |
| 20260901150203 | 66 | 60 | 2.0 | 10.0 | 0.00 | 0.00 | 0.00 | 78 | 1017.1 |
| 20260901145202 | 67 | 70 | 1.0 | 9.0 | 0.00 | 0.00 | 0.00 | 79 | 1017.2 |
| 20260901144203 | 67 | 76 | 3.0 | 8.0 | 0.00 | 0.00 | 0.00 | 79 | 1017.1 |
| 20260901143203 | 65 | 86 | 3.0 | 7.0 | 0.00 | 0.00 | 0.00 | 82 | 1017.1 |
| 20260901142223 | 65 | 75 | 1.0 | 6.0 | 0.00 | 0.00 | 0.00 | 83 | 1017.2 |
| 20260901141203 | 64 | 76 | 2.0 | 6.0 | 0.00 | 0.00 | 0.00 | 84 | 1017.3 |
| 20260901140202 | 64 | 73 | 1.0 | 5.0 | 0.00 | 0.00 | 0.00 | 83 | 1017.1 |
| 20260901135203 | 64 | 78 | 0.0 | 8.0 | 0.00 | 0.00 | 0.00 | 84 | 1017.3 |
| 20260901134203 | 63 | 68 | 2.0 | 7.0 | 0.00 | 0.00 | 0.00 | 85 | 1017.2 |
| 20260901133203 | 63 | 73 | 1.0 | 3.0 | 0.00 | 0.00 | 0.00 | 86 | 1017.2 |
| 20260901132203 | 62 | 73 | 1.0 | 5.0 | 0.00 | 0.00 | 0.00 | 87 | 1017.3 |
| 20260901131203 | 62 | 83 | 1.0 | 7.0 | 0.00 | 0.00 | 0.00 | 88 | 1017.2 |
| 20260901130203 | 61 | 104 | 3.0 | 8.0 | 0.00 | 0.00 | 0.00 | 88 | 1017.1 |
| 20260901125203 | 61 | 254 | 2.0 | 4.0 | 0.00 | 0.00 | 0.00 | 89 | 1017.2 |
| 20260901124203 | 61 | 254 | 1.0 | 3.0 | 0.00 | 0.00 | 0.00 | 91 | 1017.1 |
| 20260901123203 | 60 | 254 | 0.0 | 3.0 | 0.00 | 0.00 | 0.00 | 92 | 1017.1 |
| 20260901122203 | 60 | 254 | 0.0 | 3.0 | 0.00 | 0.00 | 0.00 | 93 | 1017.0 |
| 20260901121203 | 59 | 254 | 0.0 | 4.0 | 0.00 | 0.00 | 0.00 | 93 | 1016.8 |
| 20260901120202 | 59 | 254 | 1.0 | 2.0 | 0.00 | 0.00 | 0.00 | 94 | 1016.9 |
| 20260901115204 | 58 | 254 | 0.0 | 3.0 | 0.00 | 0.00 | 0.00 | 94 | 1016.8 |
| 20260901114245 | 58 | 254 | 0.0 | 1.0 | 0.00 | 0.00 | 0.00 | 95 | 1016.9 |
| 20260901113202 | 57 | 255 | 0.0 | 1.0 | 0.00 | 0.00 | 0.00 | 95 | 1016.7 |
| 20260901112203 | 56 | 254 | 0.0 | 1.0 | 0.00 | 0.00 | 0.00 | 96 | 1016.6 |
| 20260901111204 | 55 | 254 | 0.0 | 1.0 | 0.00 | 0.00 | 0.00 | 96 | 1016.5 |
| 20260901110202 | 55 | 255 | 0.0 | 0.0 | 0.00 | 0.00 | 0.00 | 96 | 1016.6 |
| 20260901105202 | 54 | 255 | 0.0 | 0.0 | 0.00 | 0.00 | 0.00 | 96 | 1016.5 |
| 20260901104203 | 53 | 255 | 0.0 | 0.0 | 0.00 | 0.00 | 0.00 | 96 | 1016.5 |
| 20260901103203 | 53 | 255 | 0.0 | 0.0 | 0.00 | 0.00 | 0.00 | 96 | 1016.4 |
| 20260901102203 | 53 | 255 | 0.0 | 0.0 | 0.00 | 0.00 | 0.00 | 96 | 1016.2 |
| 20260901101203 | 53 | 255 | 0.0 | 0.0 | 0.00 | 0.00 | 0.00 | 96 | 1016.3 |
| 20260901100202 | 53 | 255 | 0.0 | 0.0 | 0.00 | 0.00 | 0.00 | 96 | 1016.2 |
| 20260901095203 | 52 | 255 | 0.0 | 0.0 | 0.00 | 0.00 | 0.00 | 95 | 1015.9 |
| 20260901094203 | 52 | 255 | 0.0 | 0.0 | 0.00 | 0.00 | 0.00 | 95 | 1015.9 |
| 20260901093203 | 52 | 255 | 0.0 | 0.0 | 0.00 | 0.00 | 0.00 | 95 | 1016.0 |
| 20260901092224 | 52 | 255 | 0.0 | 0.0 | 0.00 | 0.00 | 0.00 | 95 | 1016.1 |
| 20260901091224 | 52 | 255 | 0.0 | 0.0 | 0.00 | 0.00 | 0.00 | 95 | 1016.1 |
| 20260901090203 | 52 | 255 | 0.0 | 1.0 | 0.00 | 0.00 | 0.00 | 95 | 1016.3 |
| 20260901085203 | 52 | 255 | 0.0 | 0.0 | 0.00 | 0.00 | 0.00 | 95 | 1016.2 |
| 20260901084204 | 52 | 255 | 0.0 | 0.0 | 0.00 | 0.00 | 0.00 | 95 | 1016.2 |
| 20260901083202 | 53 | 255 | 0.0 | 0.0 | 0.00 | 0.00 | 0.00 | 95 | 1016.1 |
| 20260901082224 | 53 | 255 | 0.0 | 2.0 | 0.00 | 0.00 | 0.00 | 95 | 1016.2 |
| 20260901081202 | 53 | 255 | 1.0 | 2.0 | 0.00 | 0.00 | 0.00 | 95 | 1016.3 |
| 20260901080203 | 53 | 255 | 0.0 | 1.0 | 0.00 | 0.00 | 0.00 | 95 | 1016.3 |
| 20260901075203 | 53 | 254 | 0.0 | 1.0 | 0.00 | 0.00 | 0.00 | 95 | 1016.3 |
| 20260901074203 | 53 | 255 | 1.0 | 2.0 | 0.00 | 0.00 | 0.00 | 95 | 1016.4 |
| 20260901073203 | 53 | 254 | 1.0 | 1.0 | 0.00 | 0.00 | 0.00 | 95 | 1016.3 |
| 20260901072202 | 53 | 255 | 0.0 | 1.0 | 0.00 | 0.00 | 0.00 | 95 | 1016.4 |
| 20260901071203 | 53 | 255 | 0.0 | 1.0 | 0.00 | 0.00 | 0.00 | 95 | 1016.5 |
| 20260901070202 | 53 | 255 | 0.0 | 0.0 | 0.00 | 0.00 | 0.00 | 95 | 1016.5 |
| 20260901065224 | 53 | 255 | 0.0 | 0.0 | 0.00 | 0.00 | 0.00 | 95 | 1016.4 |
| 20260901064203 | 54 | 255 | 0.0 | 1.0 | 0.00 | 0.00 | 0.00 | 95 | 1016.5 |
| 20260901063203 | 53 | 255 | 0.0 | 0.0 | 0.00 | 0.00 | 0.00 | 95 | 1016.6 |
| 20260901062203 | 54 | 255 | 0.0 | 0.0 | 0.00 | 0.00 | 0.00 | 95 | 1016.6 |
| 20260901061202 | 54 | 255 | 0.0 | 1.0 | 0.00 | 0.00 | 0.00 | 95 | 1016.8 |
| 20260901060203 | 54 | 254 | 0.0 | 1.0 | 0.00 | 0.00 | 0.00 | 95 | 1016.8 |
| 20260901055203 | 55 | 255 | 0.0 | 1.0 | 0.00 | 0.00 | 0.00 | 94 | 1016.7 |
| 20260901054203 | 55 | 254 | 0.0 | 2.0 | 0.00 | 0.00 | 0.00 | 95 | 1016.6 |
| 20260901053203 | 55 | 254 | 0.0 | 2.0 | 0.00 | 0.00 | 0.00 | 94 | 1016.5 |
| 20260901052202 | 55 | 255 | 0.0 | 1.0 | 0.00 | 0.00 | 0.00 | 94 | 1016.5 |
| 20260901051203 | 55 | 254 | 0.0 | 1.0 | 0.00 | 0.00 | 0.00 | 94 | 1016.4 |
| 20260901050202 | 54 | 254 | 0.0 | 1.0 | 0.00 | 0.00 | 0.00 | 94 | 1016.5 |
| 20260901045204 | 54 | 255 | 0.0 | 0.0 | 0.00 | 0.00 | 0.00 | 94 | 1016.7 |
| 20260901044245 | 54 | 255 | 0.0 | 0.0 | 0.00 | 0.00 | 0.00 | 94 | 1016.7 |
| 20260901043202 | 54 | 255 | 0.0 | 0.0 | 0.00 | 0.01 | 0.00 | 94 | 1016.7 |
| 20260901042203 | 54 | 255 | 0.0 | 0.0 | 0.00 | 0.01 | 0.00 | 94 | 1016.7 |
| 20260901040203 | 54 | 255 | 0.0 | 0.0 | 0.00 | 0.01 | 0.00 | 93 | 1016.8 |
| 20260901035223 | 54 | 255 | 0.0 | 0.0 | 0.00 | 0.01 | 0.01 | 94 | 1016.7 |
| 20260901034203 | 54 | 255 | 0.0 | 0.0 | 0.00 | 0.01 | 0.01 | 94 | 1016.7 |
| 20260901033202 | 54 | 255 | 0.0 | 0.0 | 0.00 | 0.01 | 0.01 | 94 | 1016.8 |
| 20260901032203 | 54 | 255 | 0.0 | 0.0 | 0.00 | 0.01 | 0.01 | 93 | 1016.9 |
| 20260901031203 | 54 | 255 | 0.0 | 0.0 | 0.00 | 0.01 | 0.01 | 93 | 1016.9 |
| 20260901030202 | 54 | 255 | 0.0 | 0.0 | 0.00 | 0.01 | 0.01 | 93 | 1017.0 |
| 20260901025203 | 54 | 255 | 0.0 | 0.0 | 0.00 | 0.01 | 0.01 | 93 | 1017.0 |
| 20260901024202 | 54 | 255 | 0.0 | 0.0 | 0.00 | 0.01 | 0.01 | 92 | 1017.2 |